Voltar ao catálogo

COSMOS 249 DEB *

AtivoLEO
NORAD 3758·DEBRIS·🇷🇺 Russia

Lançado Oct 20, 1968 de Baikonur Cosmodrome

Loading…

Próximas Passagens (próximas 24 horas)

TLE

AtualizadoSource: Space-Track

Época: Sep 14, 2026, 11:11 UTC

1 03758U 68091AV  26257.46640008  .00000193  00000-0  31842-3 0  9991
2 03758  62.2598 268.7462 0774458 123.1965 244.5733 12.82644089625346

Acompanhe COSMOS 249 DEB * em tempo real com AllMySat

Download on the App Store